Погода в Багане

Россия / Самарская область     54°21′19″N   51°24′20″E
темп.,
°C
ветер,
м/с
пор.,
м/с
влажн.,
%
обл.,
%
осадки,
мм/ч
давл.,
гПа
погр.,
м
18 октября, пн
пн1801:00+7ю3891100 1.3 1016316
04:00+8ю2599100 3.1 1014200
07:00+8ююз3798100 1.8 1013364
10:00+8ююз3697100 2.1 1013321
13:00+9ю3895100 0.9 1012422
16:00+9ююв3681100 1.1 1011277
19:00+8ю4982100 0.1 1010361
22:00+8ююз4985100 0.1 1010310
19 октября, вт
вт1901:00+8з3787100 0.1 1009412
04:00+7зсз3667100 0.1 1010289
07:00+5сз2574100 0.0 1010170
10:00+6сз3468100 0.0 1011476
13:00+7сз3351100 0.0 1011815
16:00+7сз3346100 0.0 1011849
19:00+5ссз2358100 0.0 101282
22:00+5с2263100 0.0 101232
20 октября, ср
ср2001:00+4с2368100 0.0 1011100
04:00+3с2576100 0.0 1011146
07:00+2ссз4778100 0.0 1012270
10:00+3с686219 0.0 1012564
13:00+5с675687 0.0 10121330
16:00+4ссз6955100 0.0 10131546
19:00+3ссз7106586 0.0 1015982
22:00+1ссз6126887 0.1 1015737
21 октября, чт
чт2101:000ссз612725 0.0 1016599
04:00−2ссз612765 0.0 1017503
07:00−3сз510835 0.0 1018352
10:000сз46665 0.0 1018552
13:00+3з455070 0.0 1016774
16:00+4юз4755100 0.0 1014768
19:00+3ююз51155100 0.0 1012611
22:00+2ююз61284100 0.5 1010615
22 октября, пт
пт2201:00+3юз61292100 0.8 1008532
04:00+4ююз61192100 0.8 1007404
07:00+5юз61389100 0.4 1005411
10:00+8юз71581100 1.8 1004562
13:00+11юз81569100 0.0 1003798
16:00+11зюз8146823 0.0 1003814
19:00+10зюз716745 0.0 1005593
22:00+10зюз815757 0.0 1006767